Location: Newark
(48.5156°N, 1.8989°W)
Time: 20:55:00
(UTC+00:00)

Altair - Visible Passes

Search period start: 21 November 2019 00:00
Search period end: 01 December 2019 00:00
Orbit: 1502 x 1682 km, 47.2° (Epoch: 20 November)

Date Brightness Start Highest point End Pass type
(mag) Time Alt. Az. Time Alt. Az. Time Alt. Az.
21 Nov 9.5 01:23:07 13° E 01:23:07 13° E 01:24:03 10° E visible
21 Nov 7.6 03:21:09 60° SE 03:21:09 60° SE 03:29:17 10° ENE visible
21 Nov 7.4 05:19:10 29° W 05:24:38 84° S 05:34:00 10° E visible
22 Nov 8.0 02:57:28 48° ESE 02:57:28 48° ESE 03:04:06 10° ENE visible
22 Nov 7.4 04:55:29 40° W 04:59:29 84° S 05:08:50 10° E visible
23 Nov 8.4 02:33:45 36° E 02:33:45 36° E 02:38:56 10° ENE visible
23 Nov 7.3 04:31:47 54° WSW 04:34:19 83° S 04:43:39 10° E visible
23 Nov 7.6 06:29:48 10° W 06:38:52 71° SSW 06:48:12 10° ESE visible
24 Nov 8.8 02:10:01 27° E 02:10:01 27° E 02:13:46 10° ENE visible
24 Nov 7.2 04:08:03 72° WSW 04:09:10 83° S 04:18:28 10° E visible
24 Nov 7.6 06:06:04 16° W 06:13:44 73° SSW 06:23:04 10° ESE visible
25 Nov 9.2 01:46:17 20° E 01:46:17 20° E 01:48:36 10° ENE visible
25 Nov 7.3 03:44:19 81° SE 03:44:19 81° SE 03:53:17 10° E visible
25 Nov 7.5 05:42:20 23° W 05:48:35 75° SSW 05:57:55 10° ESE visible
26 Nov 9.5 01:22:33 13° ENE 01:22:33 13° ENE 01:23:25 10° ENE visible
26 Nov 7.6 03:20:34 64° E 03:20:34 64° E 03:28:07 10° E visible
26 Nov 7.4 05:18:35 32° W 05:23:27 77° SSW 05:32:46 10° ESE visible
27 Nov 8.0 02:56:49 47° E 02:56:49 47° E 03:02:57 10° E visible
27 Nov 7.4 04:54:51 44° W 04:58:19 78° SSW 05:07:36 10° ESE visible
27 Nov 8.1 06:53:48 10° WNW 07:02:20 44° SW 07:11:03 10° SSE visible
28 Nov 8.5 02:33:05 35° E 02:33:05 35° E 02:37:47 10° E visible
28 Nov 7.3 04:31:07 59° W 04:33:10 80° S 04:42:27 10° ESE visible
28 Nov 8.0 06:29:08 12° WNW 06:37:15 47° SSW 06:46:03 10° SE visible
29 Nov 8.9 02:09:22 25° E 02:09:22 25° E 02:12:37 10° E visible
29 Nov 7.2 04:07:23 77° WSW 04:08:01 81° S 04:17:17 10° ESE visible
29 Nov 7.8 06:05:25 18° W 06:12:10 50° SSW 06:21:02 10° SE visible
30 Nov 9.3 01:45:39 18° E 01:45:39 18° E 01:47:28 10° E visible
30 Nov 7.4 03:43:41 75° SE 03:43:41 75° SE 03:52:08 10° ESE visible
30 Nov 7.7 05:41:43 25° W 05:47:04 53° SSW 05:56:00 10° SE visible
